EW7645 Weather Reports


Display with metric or nautical units.
time (UTC)temp
F
wind
direction
speed
MPH
gust
MPH
rain 1hr
in
rain 24hr
in
rain mn
in
humidity
%
barometer
mb
20220516221517 74 203 7.0 14.0 0.00 0.00 0.00 26 1013.0
20220516220517 75 203 8.0 14.0 0.00 0.00 0.00 25 1013.2
20220516215517 75 180 6.0 16.0 0.00 0.00 0.00 23 1013.6
20220516214517 76 270 6.0 25.0 0.00 0.00 0.00 22 1014.0
20220516213515 77 270 8.0 22.0 0.00 0.00 0.00 20 1013.8
20220516212517 77 270 7.0 15.0 0.00 0.00 0.00 19 1013.2
20220516211517 77 270 5.0 11.0 0.00 0.00 0.00 20 1013.3
20220516210517 77 315 4.0 14.0 0.00 0.00 0.00 20 1013.4
20220516205515 77 315 6.0 15.0 0.00 0.00 0.00 20 1013.7
20220516204517 78 315 11.0 22.0 0.00 0.00 0.00 18 1013.5
20220516203518 79 315 9.0 19.0 0.00 0.00 0.00 17 1013.7
20220516202517 79 23 2.0 8.0 0.00 0.00 0.00 17 1013.4
20220516201517 80 23 3.0 6.0 0.00 0.00 0.00 17 1013.7
20220516200517 81 23 6.0 15.0 0.00 0.00 0.00 16 1013.6
20220516195517 82 23 2.0 8.0 0.00 0.00 0.00 14 1013.7
20220516194517 82 23 2.0 7.0 0.00 0.00 0.00 15 1013.8
20220516193517 82 0 4.0 14.0 0.00 0.00 0.00 16 1014.5
20220516192517 81 338 2.0 6.0 0.00 0.00 0.00 19 1014.4
20220516191517 82 23 5.0 11.0 0.00 0.00 0.00 17 1014.6
20220516190517 83 68 3.0 10.0 0.00 0.00 0.00 20 1015.2
20220516185515 84 23 4.0 9.0 0.00 0.00 0.00 19 1015.2
20220516184515 84 45 2.0 9.0 0.00 0.00 0.00 18 1015.4
20220516183515 83 45 2.0 8.0 0.00 0.00 0.00 23 1015.4
20220516182515 82 45 1.0 5.0 0.00 0.00 0.00 21 1015.9
20220516181515 82 0 1.0 4.0 0.00 0.00 0.00 23 1016.2
20220516180515 81 23 3.0 8.0 0.00 0.00 0.00 22 1016.1
20220516175515 81 23 1.0 6.0 0.00 0.00 0.00 22 1016.7
20220516174515 79 0.0 2.0 0.00 0.00 0.00 21 1016.4
20220516173515 78 0.0 1.0 0.00 0.00 0.00 22 1016.6
20220516172515 77 0.0 2.0 0.00 0.00 0.00 24 1016.9
20220516171515 77 203 1.0 4.0 0.00 0.00 0.00 23 1016.9
20220516170515 76 0.0 2.0 0.00 0.00 0.00 33 1017.3
20220516165515 75 180 1.0 3.0 0.00 0.00 0.00 29 1017.4
20220516164515 73 0.0 3.0 0.00 0.00 0.00 34 1017.3
20220516163515 71 0.0 1.0 0.00 0.00 0.00 39 1017.4
20220516162515 71 0.0 1.0 0.00 0.00 0.00 34 1017.8
20220516161515 70 0.0 2.0 0.00 0.00 0.00 37 1017.9
20220516160515 69 0.0 1.0 0.00 0.00 0.00 40 1018.2
20220516155515 67 0.0 1.0 0.00 0.00 0.00 44 1018.5
20220516154515 66 0.0 1.0 0.00 0.00 0.00 44 1018.6
20220516153515 64 0.0 1.0 0.00 0.00 0.00 45 1018.4
20220516152515 62 0.0 1.0 0.00 0.00 0.00 49 1018.3
20220516151515 61 0.0 0.0 0.00 0.00 0.00 49 1018.3
20220516150515 61 0.0 0.0 0.00 0.00 0.00 49 1018.4
20220516145515 60 0.0 0.0 0.00 0.00 0.00 51 1018.5
20220516144515 59 0.0 0.0 0.00 0.00 0.00 56 1018.5
20220516143515 59 0.0 0.0 0.00 0.00 0.00 54 1018.5
20220516142515 59 0.0 1.0 0.00 0.00 0.00 56 1018.7
20220516141515 58 0.0 2.0 0.00 0.00 0.00 57 1018.7
20220516140515 57 0.0 1.0 0.00 0.00 0.00 62 1018.8
20220516135515 55 0.0 0.0 0.00 0.00 0.00 69 1018.6
20220516134515 54 0.0 0.0 0.00 0.00 0.00 71 1018.7
20220516133515 54 0.0 1.0 0.00 0.00 0.00 72 1018.8
20220516132515 54 0.0 1.0 0.00 0.00 0.00 71 1018.9
20220516131515 53 0.0 0.0 0.00 0.00 0.00 74 1018.9
20220516130515 51 0.0 0.0 0.00 0.00 0.00 78 1018.5
20220516125515 49 0.0 0.0 0.00 0.00 0.00 80 1018.2
20220516124515 48 0.0 0.0 0.00 0.00 0.00 81 1018.1
20220516123515 47 0.0 0.0 0.00 0.00 0.00 82 1018.1
20220516122515 46 0.0 1.0 0.00 0.00 0.00 83 1018.0
20220516121515 45 0.0 0.0 0.00 0.00 0.00 85 1018.1
20220516120515 45 0.0 0.0 0.00 0.00 0.00 84 1018.2
20220516115515 44 0.0 0.0 0.00 0.00 0.00 84 1018.1
20220516114515 44 0.0 0.0 0.00 0.00 0.00 83 1018.0
20220516113515 44 0.0 0.0 0.00 0.00 0.00 82 1018.0
20220516112515 44 0.0 0.0 0.00 0.00 0.00 81 1018.0
20220516111515 45 0.0 0.0 0.00 0.00 0.00 80 1018.2
20220516110515 45 0.0 0.0 0.00 0.00 0.00 79 1018.3
20220516105515 46 0.0 0.0 0.00 0.00 0.00 78 1018.3
20220516104515 46 0.0 0.0 0.00 0.00 0.00 77 1018.4
20220516103515 47 0.0 2.0 0.00 0.00 0.00 76 1018.3
20220516102515 47 225 2.0 2.0 0.00 0.00 0.00 77 1018.6
20220516101515 47 0.0 1.0 0.00 0.00 0.00 76 1018.5
20220516100515 47 0.0 0.0 0.00 0.00 0.00 76 1018.6
20220516095515 47 0.0 2.0 0.00 0.00 0.00 75 1018.2
20220516094515 48 0.0 1.0 0.00 0.00 0.00 76 1018.5
20220516093515 48 0.0 1.0 0.00 0.00 0.00 74 1018.4
20220516092515 48 0.0 0.0 0.00 0.00 0.00 74 1018.5
20220516091515 48 0.0 0.0 0.00 0.00 0.00 73 1018.3
20220516090515 48 0.0 1.0 0.00 0.00 0.00 73 1018.4
20220516085515 49 0.0 1.0 0.00 0.00 0.00 71 1018.4
20220516084515 49 0.0 0.0 0.00 0.00 0.00 71 1018.4
20220516083515 49 0.0 0.0 0.00 0.00 0.00 70 1018.6
20220516082515 50 0.0 1.0 0.00 0.00 0.00 69 1018.7
20220516081515 50 0.0 0.0 0.00 0.00 0.00 68 1018.8
20220516080515 51 0.0 0.0 0.00 0.00 0.00 67 1019.3
20220516075515 51 0.0 1.0 0.00 0.00 0.00 66 1019.1
20220516074515 51 0.0 0.0 0.00 0.00 0.00 65 1019.1
20220516073515 52 0.0 2.0 0.00 0.00 0.00 64 1019.2
20220516072515 52 0.0 0.0 0.00 0.00 0.00 63 1019.4
20220516071515 53 0.0 1.0 0.00 0.00 0.00 62 1019.7
20220516070515 54 0.0 0.0 0.00 0.00 0.00 61 1020.1
20220516065515 53 225 1.0 3.0 0.00 0.00 0.00 63 1019.9
20220516064515 53 0.0 2.0 0.00 0.00 0.00 63 1019.9
20220516063515 54 0.0 0.0 0.00 0.00 0.00 62 1020.1
20220516062515 54 0.0 0.0 0.00 0.00 0.00 61 1020.2
20220516061515 54 0.0 3.0 0.00 0.00 0.00 60 1020.3
20220516060515 54 0.0 0.0 0.00 0.00 0.00 59 1020.4
20220516055515 55 0.0 0.0 0.00 0.00 0.00 57 1020.3
20220516054515 56 0.0 0.0 0.00 0.00 0.00 55 1020.7
20220516053515 56 0.0 2.0 0.00 0.00 0.00 55 1020.9
20220516052515 57 0.0 0.0 0.00 0.00 0.00 54 1021.0
20220516051515 58 0.0 0.0 0.00 0.00 0.00 54 1021.0
20220516050515 58 0.0 0.0 0.00 0.00 0.00 50 1021.0
20220516045515 59 0.0 0.0 0.00 0.00 0.00 47 1020.9
20220516044515 60 0.0 0.0 0.00 0.00 0.00 45 1021.3
20220516043515 60 0.0 1.0 0.00 0.00 0.00 46 1021.4
20220516042515 62 0.0 1.0 0.00 0.00 0.00 43 1021.2
20220516041515 63 293 2.0 6.0 0.00 0.00 0.00 42 1021.0
20220516040515 64 293 1.0 4.0 0.00 0.00 0.00 40 1021.1
20220516035515 65 338 1.0 5.0 0.00 0.00 0.00 39 1021.4
20220516034515 66 315 2.0 7.0 0.00 0.00 0.00 37 1021.2
20220516033515 67 315 2.0 6.0 0.00 0.00 0.00 37 1021.2
20220516032515 67 315 3.0 10.0 0.00 0.00 0.00 36 1021.2
20220516031515 68 293 3.0 8.0 0.00 0.00 0.00 35 1021.4
20220516030515 68 0 3.0 11.0 0.00 0.00 0.00 33 1020.8
20220516025515 68 45 2.0 6.0 0.00 0.00 0.00 34 1020.6
20220516024515 69 23 3.0 10.0 0.00 0.00 0.00 33 1020.5
20220516023515 69 23 4.0 11.0 0.00 0.00 0.00 33 1020.1
20220516022515 69 23 2.0 6.0 0.00 0.00 0.00 33 1020.1
20220516021515 70 23 3.0 9.0 0.00 0.00 0.00 32 1019.8
20220516020515 71 23 3.0 9.0 0.00 0.00 0.00 31 1019.9
20220516015515 71 23 1.0 4.0 0.00 0.00 0.00 31 1019.5
20220516014515 72 45 3.0 9.0 0.00 0.00 0.00 30 1019.3
20220516013515 73 23 1.0 5.0 0.00 0.00 0.00 30 1019.2
20220516012515 73 45 1.0 4.0 0.00 0.00 0.00 29 1019.1
20220516011515 73 90 1.0 7.0 0.00 0.00 0.00 29 1018.8
20220516010515 74 23 2.0 6.0 0.00 0.00 0.00 29 1018.7
20220516005515 74 90 2.0 10.0 0.00 0.00 0.00 28 1018.4
20220516004515 75 90 2.0 9.0 0.00 0.00 0.00 28 1018.2
20220516003515 76 68 1.0 4.0 0.00 0.00 0.00 27 1018.2
20220516002515 76 90 3.0 11.0 0.00 0.00 0.00 26 1018.2
20220516001515 77 90 1.0 5.0 0.00 0.00 0.00 27 1018.6
20220516000516 78 68 1.0 5.0 0.00 0.00 0.00 26 1018.8
20220515235515 80 23 4.0 9.0 0.00 0.00 0.00 24 1018.6
20220515234515 79 68 3.0 9.0 0.00 0.00 0.00 25 1018.6
20220515233515 79 90 1.0 4.0 0.00 0.00 0.00 25 1018.7
20220515232515 79 23 4.0 8.0 0.00 0.00 0.00 24 1019.0
20220515231515 79 45 3.0 10.0 0.00 0.00 0.00 26 1019.1
20220515230515 79 23 3.0 8.0 0.00 0.00 0.00 25 1019.2
20220515225515 79 90 2.0 7.0 0.00 0.00 0.00 24 1019.2
20220515224515 79 68 3.0 9.0 0.00 0.00 0.00 25 1019.3
20220515223515 79 270 2.0 7.0 0.00 0.00 0.00 24 1019.1
20220515222515 80 68 3.0 7.0 0.00 0.00 0.00 23 1019.7